Weather History for New Orleans Lakefront, LA

Change the Weather History Date:

Sunday, September 29, 2013

  Actual Average Record
Temperature  
Mean Temperature 77 °F 76 °F  
Max Temperature 86 °F 84 °F 94 °F (1980)
Min Temperature 67 °F 68 °F 45 °F (1967)
Degree Days  
Heating Degree Days 0 0  
Month to date heating degree days 0 0  
Since 1 July heating degree days 0 0  
Cooling Degree Days 12 11  
Month to date cooling degree days 496 431  
Year to date cooling degree days 2632 2677  
Growing Degree Days 28 (Base 50)    
Moisture  
Dew Point 68 °F    
Average Humidity 72    
Maximum Humidity 93    
Minimum Humidity 51    
Precipitation  
Precipitation 0.00 in 0.13 in 1.25 in (1989)
Month to date precipitation 7.45 4.85  
Year to date precipitation 57.76 49.06  
Snow  
Snow 0.00 in - - ()
Month to date snowfall 0.0  
Since 1 July snowfall 0.0  
Since 1 September snowfall 0.0  
Snow Depth 0.00 in    
Sea Level Pressure  
Sea Level Pressure 29.98 in    
Wind  
Wind Speed 4 mph (East)    
Max Wind Speed 12 mph    
Max Gust Speed 14 mph    
Visibility 10 miles    
Events      
T = Trace of Precipitation, MM = Missing Value Source: NWS Daily Summary

Daily Weather History Graph

Daily Weather History Graph

Search for Another Location

Airport:

Trip Planner

Search our weather history database for the weather conditions in past years. The results will help you decide how hot, cold, wet, or windy it might be!

Date:

Astronomy

Sep. 29, 2013 Rise Set
Actual Time 6:52 AM CDT 6:47 PM CDT
Civil Twilight 6:28 AM CDT 7:11 PM CDT
Nautical Twilight 6:00 AM CDT 7:39 PM CDT
Astronomical Twilight 5:32 AM CDT 8:07 PM CDT
Moon 1:53 AM CDT (9/29) 3:26 PM CDT (9/29)
Length of Visible Light 12h 42m
Length of Day
11h 55m
Waning Crescent, 27% of the Moon is Illuminated
Sep 29
Waning Crescent
Oct 4
New
Oct 11
First Quarter
Oct 18
Full
Oct 26
Last Quarter

Hourly Weather History & Observations

Time (CDT) Temp. Heat Index Dew Point Humidity Pressure Visibility Wind Dir Wind Speed Gust Speed Precip Events Conditions
12:53 AM 75.9 °F - 69.1 °F 79% 30.02 in 10.0 mi SE 5.8 mph - N/A   Clear
1:53 AM 75.0 °F - 68.0 °F 79% 30.01 in 10.0 mi SE 5.8 mph - N/A   Clear
2:53 AM 73.9 °F - 68.0 °F 82% 30.00 in 10.0 mi SE 5.8 mph - N/A   Clear
3:53 AM 73.0 °F - 68.0 °F 84% 29.99 in 10.0 mi SE 4.6 mph - N/A   Clear
4:53 AM 75.0 °F - 69.1 °F 82% 29.99 in 10.0 mi ENE 3.5 mph - N/A   Clear
5:53 AM 75.9 °F - 70.0 °F 82% 30.00 in 10.0 mi East 3.5 mph - N/A   Clear
6:53 AM 75.0 °F - 70.0 °F 84% 30.00 in 10.0 mi East 6.9 mph - N/A   Clear
7:53 AM 78.1 °F - 71.1 °F 79% 30.01 in 10.0 mi East 10.4 mph - N/A   Clear
8:53 AM 79.0 °F - 71.1 °F 77% 30.01 in 10.0 mi ENE 11.5 mph - N/A   Clear
9:53 AM 81.0 °F 84.9 °F 71.1 °F 72% 30.02 in 10.0 mi ENE 10.4 mph - N/A   Clear
10:53 AM 82.9 °F 87.0 °F 70.0 °F 65% 30.03 in 10.0 mi NE 9.2 mph - N/A   Clear
11:53 AM 84.0 °F 88.4 °F 70.0 °F 63% 30.01 in 10.0 mi NNE 9.2 mph - N/A   Scattered Clouds
12:53 PM 84.9 °F 88.2 °F 68.0 °F 57% 29.99 in 10.0 mi NNE 8.1 mph - N/A   Scattered Clouds
1:53 PM 84.9 °F 86.6 °F 64.9 °F 51% 29.97 in 10.0 mi NNE 8.1 mph - N/A   Partly Cloudy
2:53 PM 82.9 °F 84.6 °F 64.9 °F 54% 29.95 in 10.0 mi North 6.9 mph - N/A   Clear
3:53 PM 84.9 °F 84.4 °F 59.0 °F 41% 29.94 in 10.0 mi North 4.6 mph - N/A   Clear
4:53 PM 84.0 °F 84.4 °F 61.0 °F 46% 29.94 in 10.0 mi North 6.9 mph - N/A   Clear
5:53 PM 82.9 °F 85.4 °F 66.9 °F 58% 29.94 in 10.0 mi ENE 6.9 mph - N/A   Clear
6:53 PM 81.0 °F 84.1 °F 69.1 °F 67% 29.95 in 10.0 mi East 6.9 mph - N/A   Clear
7:53 PM 81.0 °F 84.4 °F 70.0 °F 69% 29.95 in 10.0 mi ESE 5.8 mph - N/A   Scattered Clouds
8:53 PM 80.1 °F 83.2 °F 70.0 °F 71% 29.96 in 10.0 mi East 5.8 mph - N/A   Scattered Clouds
9:53 PM 79.0 °F - 71.1 °F 77% 29.96 in 10.0 mi East 9.2 mph - N/A   Mostly Cloudy
10:53 PM 78.1 °F - 71.1 °F 79% 29.94 in 10.0 mi East 8.1 mph - N/A   Clear
11:53 PM 78.1 °F - 71.1 °F 79% 29.94 in 10.0 mi SE 6.9 mph - N/A   Clear